Regional Weather Roundup
Issued by NWS

Home | Current Version | Previous Version | Text Only | Print | Product List | Glossary Off
Versions: 1 2 3 4 5 6 7 8 9 10 11 12 13 14 15 16 17 18 19 20 21 22 23 24 25 26 27 28 29 30 31 32 33 34 35 36 37 38 39 40 41 42 43 44 45 46 47 48 49 50

000
ASUS43 KMKX 211800
RWRWI

WISCONSIN REGIONAL WEATHER ROUNDUP
NATIONAL WEATHER SERVICE MILWAUKEE/SULLIVAN WI
1200 PM CST TUE FEB 21 2017

NOTE: "FAIR" INDICATES FEW OR NO CLOUDS BELOW 12,000 FEET WITH NO
SIGNIFICANT WEATHER AND/OR OBSTRUCTIONS TO VISIBILITY.

WIZ001-002-006>008-014>016-023>028-211900-
NORTHWEST WISCONSIN

CITY           SKY/WX    TMP DP  RH WIND       PRES   REMARKS
SUPERIOR ARPT  SUNNY     46  38  75 SW8       29.82F
ASHLAND        SUNNY     49  38  65 SW12      29.82F
6HR MIN TEMP:  35; 6HR MAX TEMP:  49;

HAYWARD        SUNNY     44  36  73 SW8       29.85F
6HR MIN TEMP:  35; 6HR MAX TEMP:  44;

SIREN          SUNNY     45  37  74 SE7       29.84F
CUMBERLAND     CLOUDY    36  36 100 S7        29.87F FOG     WCI  30
RICE LAKE      PTSUNNY   40  38  93 S6        29.90F
CHETEK         PTSUNNY   41  37  85 CALM      29.90F
LADYSMITH      CLOUDY    38  37  92 SE6       29.91F WCI  34
EAU CLAIRE     NOT AVBL
MENOMONIE      CLOUDY    42  39  89 SE7       29.90F FOG
6HR MIN TEMP:  36; 6HR MAX TEMP:  42;

NEW RICHMOND   SUNNY     44  44 100 SE6       29.86F
OSCEOLA        NOT AVBL
$$

WIZ003>005-009-010-017-018-211900-
NORTH CENTRAL WISCONSIN

CITY           SKY/WX    TMP DP  RH WIND       PRES   REMARKS
MANITOWISH WTR SUNNY     45  35  68 SW8       29.84F
ARBOR VITAE    SUNNY     48  37  65 W6        29.85F
WOODRUFF       SUNNY     48  37  65 W6        29.85F
RHINELANDER    SUNNY     50  35  56 W12       29.86S
6HR MIN TEMP:  38; 6HR MAX TEMP:  50;

EAGLE RIVER    SUNNY     46  34  61 SW8       29.85R
LAND O LAKES   SUNNY     50  33  53 W10       29.85S
6HR MIN TEMP:  37; 6HR MAX TEMP:  50;

PHILLIPS       SUNNY     43  37  77 SW6       29.87F
6HR MIN TEMP:  34; 6HR MAX TEMP:  43;

TOMAHAWK       SUNNY     47  35  61 SW3       29.89S
MEDFORD        PTSUNNY   38  36  92 SW5       29.90S FOG     WCI  34
MERRILL        NOT AVBL
$$

WIZ029-030-035-036-043>047-211900-
CENTRAL WISCONSIN

CITY           SKY/WX    TMP DP  RH WIND       PRES   REMARKS
WAUSAU         SUNNY     46  38  73 SW5       29.89S
6HR MIN TEMP:  37; 6HR MAX TEMP:  46;

MOSINEE        SUNNY     45  41  87 S7        29.92S
MARSHFIELD     SUNNY     47  41  80 SW6       29.90S
6HR MIN TEMP:  38; 6HR MAX TEMP:  47;

STEVENS POINT  SUNNY     46  37  70 W6        29.93R
WAUPACA        SUNNY     55  40  57 SW6       29.92S
6HR MIN TEMP:  44; 6HR MAX TEMP:  55;

WAUTOMA        SUNNY     55  40  56 SW5       29.92S
6HR MIN TEMP:  43; 6HR MAX TEMP:  55;

WISC RAPIDS    SUNNY     52  40  63 VRB5      29.92F
6HR MIN TEMP:  41; 6HR MAX TEMP:  52;

CAMP DOUGLAS   NOT AVBL
$$

WIZ011>013-019>022-031-037>040-048>050-211900-
NORTHEAST WISCONSIN

CITY           SKY/WX    TMP DP  RH WIND       PRES   REMARKS
ANTIGO         SUNNY     45  38  78 SW6       29.88F
SHAWANO        SUNNY     53  40  62 W8        29.90F
6HR MIN TEMP:  45; 6HR MAX TEMP:  53;

OCONTO         SUNNY     54  39  56 W9        29.88R
6HR MIN TEMP:  44; 6HR MAX TEMP:  54;

STURGEON BAY   SUNNY     53  40  61 SW9       29.88S
6HR MIN TEMP:  46; 6HR MAX TEMP:  53;

GREEN BAY      SUNNY     54  45  71 SW6       29.90S
6HR MIN TEMP:  45; 6HR MAX TEMP:  54;

MANITOWOC      NOT AVBL
APPLETON       SUNNY     52  39  62 W7        29.90R
CLINTONVILLE   SUNNY     52  37  58 W5        29.90F
OSHKOSH        SUNNY     53  43  68 SW6       29.92S
6HR MIN TEMP:  45; 6HR MAX TEMP:  53;

$$

WIZ032>034-041-042-053>061-211900-
SOUTHWEST WISCONSIN

CITY           SKY/WX    TMP DP  RH WIND       PRES   REMARKS
LA CROSSE      SUNNY     52  40  63 SE6       29.93F
6HR MIN TEMP:  37; 6HR MAX TEMP:  52;

SPARTA         SUNNY     51  39  63 SE3       29.92F
6HR MIN TEMP:  40; 6HR MAX TEMP:  51;

VIROQUA        SUNNY     52  42  68 SW6       29.93F
6HR MIN TEMP:  35; 6HR MAX TEMP:  52;

BOSCOBEL       SUNNY     54  41  61 S5        29.95F
6HR MIN TEMP:  33; 6HR MAX TEMP:  54;

PRAIRIE DU CHI SUNNY     51  42  70 CALM      29.96S
PLATTEVILLE    SUNNY     54  44  69 CALM      29.95S
$$

WIZ056-057-062-063-064-067-068-211900-
SOUTH CENTRAL WISCONSIN

CITY           SKY/WX    TMP DP  RH WIND       PRES   REMARKS
REEDSBURG      SUNNY     53  44  73 W3        29.93S
6HR MIN TEMP:  41; 6HR MAX TEMP:  53;

BARABOO/DELLS  SUNNY     51  41  67 SW3       29.93S
LONE ROCK      NOT AVBL
MINERAL POINT  SUNNY     55  43  62 CALM      29.94S
MADISON        MOSUNNY   51  42  71 CALM      29.93F
6HR MIN TEMP:  42; 6HR MAX TEMP:  51;

MIDDLETON        N/A     56  43  61 CALM      29.93F
6HR MIN TEMP:  44; 6HR MAX TEMP:  56;

WATERTOWN      SUNNY     52  46  80 CALM      29.93F
MONROE         SUNNY     55  43  62 S3        29.94S
JANESVILLE     MOSUNNY   57  46  67 CALM      29.94S
$$

WIZ051-052-058>065-066-070>072-211900-
SOUTHEAST WISCONSIN

CITY           SKY/WX    TMP DP  RH WIND       PRES   REMARKS
MILWAUKEE      MOSUNNY   59  45  59 SW6       29.93S
6HR MIN TEMP:  53; 6HR MAX TEMP:  59;

WAUKESHA       MOSUNNY   55  45  67 W10       29.94S
MILWAUKEE/TIMM SUNNY     57  41  54 SW8       29.93F
RACINE         PTSUNNY   58  45  62 W6        29.94F
6HR MIN TEMP:  54; 6HR MAX TEMP:  59;

KENOSHA        MOSUNNY   59  48  67 SW5       29.93S
6HR MIN TEMP:  53; 6HR MAX TEMP:  59;

FOND DU LAC    SUNNY     53  43  68 VRB7      29.92S
6HR MIN TEMP:  45; 6HR MAX TEMP:  53;

SHEBOYGAN      SUNNY     56  42  59 W9        29.90F
6HR MIN TEMP:  47; 6HR MAX TEMP:  56;

WEST BEND      SUNNY     54  43  66 W6        29.92S
JUNEAU         SUNNY     48  42  81 SW3       29.94F
$$

LSZ147-162-211900-
LAKE SUPERIOR

STATION/POSITION TIME  TEMP    WIND        PRES    WAVE
                       AIR SEA DIR/SP/G            HT/PER
                 (UTC) (F)     (DEG/KT/KT) (MB)    (FT/S)
DEVILS ISLAND    1700   35     240/ 17/ 21 1010.8R
PORT WING        1730   37     290/ 10/ 11 1010.2F
SAXON HARBOR     1730   51     210/  9/ 14 1009.8F
$$

LMZ867-665-643>646-211900-
LAKE MICHIGAN

STATION/POSITION TIME  TEMP    WIND        PRES    WAVE
                       AIR SEA DIR/SP/G            HT/PER
                 (UTC) (F)     (DEG/KT/KT) (MB)    (FT/S)
CHAMBERS ISLAND  1740   49     180/  7/ 10 1010.8S
NORTHPORT PIER   1740   54     260/  3/ 12 1010.8S
SISTER BAY       1705   56     280/  4/  5   N/A
KEWAUNEE LAKESHO 1730   53     290/  9/ 14 1011.5R
SHEBOYGAN LAKESH 1700   50     270/  7/  8 1013.0S
PORT WASHINGTON  1730   58     170/  3/  7 1013.5F
MILWAUKEE LAKESH 1730   55     210/  3/  3   N/A
KENOSHA   LAKESH 1700   56     250/  7/  8 1013.5
$$

TC  - TEMPERATURE IN CELSIUS
VSB - VISIBILITY IN STATUTE MILES
WCI - WIND CHILL INDEX
HX  - HEAT INDEX




USA.gov is the U.S. government's official web portal to all federal, state and local government web resources and services.